Faribault, MN

11:42 PM CST on November 18, 2017 (GMT -0600)
Faribault Municipal

Weather History for KFBL - May, 2014

Change the Weather History Date:

Tuesday, May 27, 2014

  Actual Average Record
Temperature  
Mean Temperature 70 °F -  
Max Temperature 75 °F 71 °F 93 °F (1969)
Min Temperature 66 °F 50 °F 33 °F (1971)
Cooling Degree Days 6    
Growing Degree Days 20 (Base 50)    
Moisture  
Dew Point 63 °F    
Average Humidity 78    
Maximum Humidity 83    
Minimum Humidity 69    
Precipitation  
Precipitation 0.34 in - - ()
Sea Level Pressure  
Sea Level Pressure 29.92 in    
Wind  
Wind Speed 4 mph (NNW)    
Max Wind Speed 13 mph    
Max Gust Speed 20 mph    
Visibility 6 miles    
Events Rain , Thunderstorm    
Averages and records for this station are not official NWS values.
T = Trace of Precipitation, MM = Missing Value Source: NWS Daily Summary

Daily Weather History Graph

Daily Weather History Graph

Search for Another Location

Airport or City:

Trip Planner

Search our weather history database for the weather conditions in past years. The results will help you decide how hot, cold, wet, or windy it might be!

Date:

Astronomy

May. 27, 2014 Rise Set
Actual Time 5:35 AM CDT 8:46 PM CDT
Civil Twilight 5:00 AM CDT 9:21 PM CDT
Nautical Twilight 4:14 AM CDT 10:06 PM CDT
Astronomical Twilight 3:19 AM CDT 11:02 PM CDT
Moon 5:02 AM CDT (5/27) 7:45 PM CDT (5/27)
Length of Visible Light 16h 21m
Length of Day
15h 10m
Waning Crescent, 1% of the Moon is Illuminated
May 27
Waning Crescent
May 28
New
Jun 5
First Quarter
Jun 12
Full
Jun 19
Last Quarter

Hourly Weather History & Observations

Time (CDT) Temp. Dew Point Humidity Pressure Visibility Wind Dir Wind Speed Gust Speed Precip Events Conditions
12:14 AM 69.8 °F 64.4 °F 83% 29.90 in 4.0 mi SW 6.9 mph - N/A   Haze
12:34 AM 69.8 °F 64.4 °F 83% 29.89 in 7.0 mi Calm Calm - N/A   Overcast
1:14 AM 69.8 °F 64.4 °F 83% 29.89 in 4.0 mi Calm Calm - N/A   Haze
1:34 AM 69.8 °F 64.4 °F 83% 29.89 in 3.0 mi Calm Calm - N/A   Haze
1:54 AM 69.8 °F 62.6 °F 78% 29.90 in 3.0 mi Calm Calm - N/A   Haze
2:14 AM 68.0 °F 62.6 °F 83% 29.89 in 3.0 mi Calm Calm - N/A   Haze
2:33 AM 68.0 °F 62.6 °F 83% 29.89 in 4.0 mi Calm Calm - N/A   Haze
2:54 AM 69.8 °F 62.6 °F 78% 29.88 in 3.0 mi Calm Calm - N/A   Haze
3:14 AM 68.0 °F 62.6 °F 83% 29.89 in 2.0 mi Calm Calm - N/A   Haze
3:34 AM 68.0 °F 62.6 °F 83% 29.88 in 2.5 mi Calm Calm - N/A   Haze
3:54 AM 68.0 °F 62.6 °F 83% 29.89 in 5.0 mi Calm Calm - N/A   Haze
4:14 AM 68.0 °F 62.6 °F 83% 29.89 in 5.0 mi Calm Calm - N/A   Haze
4:34 AM 68.0 °F 62.6 °F 83% 29.89 in 4.0 mi Calm Calm - N/A   Haze
4:54 AM 68.0 °F 62.6 °F 83% 29.89 in 2.5 mi SW 3.5 mph - N/A   Haze
5:14 AM 68.0 °F 62.6 °F 83% 29.89 in 3.0 mi Calm Calm - N/A   Haze
5:34 AM 68.0 °F 62.6 °F 83% 29.89 in 3.0 mi Calm Calm - N/A   Haze
5:54 AM 68.0 °F 62.6 °F 83% 29.90 in 2.5 mi Calm Calm - N/A   Haze
6:14 AM 68.0 °F 62.6 °F 83% 29.91 in 2.0 mi SSW 5.8 mph - N/A Rain Light Rain
6:34 AM 68.0 °F 62.6 °F 83% 29.91 in 1.8 mi Calm Calm - 0.16 in Rain Heavy Rain
6:54 AM 68.0 °F 62.6 °F 83% 29.91 in 1.5 mi Calm Calm - 0.24 in Rain Rain
7:14 AM 68.0 °F 62.6 °F 83% 29.91 in 1.8 mi Calm Calm - 0.02 in Rain Rain
7:34 AM 68.0 °F 62.6 °F 83% 29.91 in 1.5 mi Calm Calm - 0.02 in   Drizzle
7:54 AM 68.0 °F 62.6 °F 83% 29.91 in 1.8 mi Calm Calm - 0.04 in Rain Rain
8:14 AM 69.8 °F 62.6 °F 78% 29.91 in 3.0 mi Calm Calm - 0.01 in Rain Heavy Rain
8:34 AM 69.8 °F 64.4 °F 83% 29.91 in 3.0 mi Calm Calm - 0.01 in   Light Drizzle
8:53 AM 69.8 °F 64.4 °F 83% 29.91 in 5.0 mi Calm Calm - 0.01 in   Haze
9:14 AM 69.8 °F 64.4 °F 83% 29.91 in 3.0 mi NNW 4.6 mph - N/A   Haze
9:34 AM 69.8 °F 64.4 °F 83% 29.91 in 2.5 mi NW 5.8 mph - N/A   Light Drizzle
9:54 AM 69.8 °F 64.4 °F 83% 29.92 in 2.0 mi NW 5.8 mph - N/A   Haze
10:14 AM 69.8 °F 64.4 °F 83% 29.92 in 3.0 mi WNW 4.6 mph - N/A   Haze
10:34 AM 69.8 °F 64.4 °F 83% 29.92 in 3.0 mi WNW 3.5 mph - N/A   Haze
10:54 AM 71.6 °F 64.4 °F 78% 29.92 in 4.0 mi NW 4.6 mph - N/A   Haze
11:14 AM 71.6 °F 64.4 °F 78% 29.93 in 5.0 mi West 10.4 mph - N/A   Haze
11:34 AM 71.6 °F 64.4 °F 78% 29.92 in 5.0 mi West 5.8 mph - N/A   Haze
11:54 AM 71.6 °F 66.2 °F 83% 29.93 in 7.0 mi WNW 5.8 mph - N/A   Mostly Cloudy
12:14 PM 73.4 °F 64.4 °F 73% 29.93 in 5.0 mi NW 5.8 mph - N/A Rain Light Rain
12:34 PM 73.4 °F 64.4 °F 73% 29.92 in 7.0 mi WNW 6.9 mph - N/A   Mostly Cloudy
12:54 PM 73.4 °F 64.4 °F 73% 29.92 in 7.0 mi West 5.8 mph - N/A Rain Light Rain
1:14 PM 73.4 °F 64.4 °F 73% 29.92 in 5.0 mi WNW 5.8 mph - N/A Rain , Thunderstorm Thunderstorms and Rain
1:34 PM 73.4 °F 66.2 °F 78% 29.92 in 7.0 mi NNW 4.6 mph - N/A   Mostly Cloudy
1:54 PM 75.2 °F 64.4 °F 69% 29.91 in 10.0 mi NNW 8.1 mph - N/A   Overcast
2:14 PM 73.4 °F 64.4 °F 73% 29.92 in 10.0 mi NW 9.2 mph - N/A   Overcast
2:34 PM 71.6 °F 64.4 °F 78% 29.92 in 5.0 mi NW 6.9 mph - 0.04 in Rain Heavy Rain
2:54 PM 71.6 °F 64.4 °F 78% 29.93 in 7.0 mi NW 8.1 mph - 0.05 in Rain , Thunderstorm Light Thunderstorms and Rain
3:14 PM 69.8 °F 64.4 °F 83% 29.93 in 5.0 mi NNW 9.2 mph - N/A Rain , Thunderstorm Light Thunderstorms and Rain
3:34 PM 69.8 °F 64.4 °F 83% 29.93 in 7.0 mi NW 9.2 mph - N/A Rain Light Rain
4:14 PM 71.6 °F 64.4 °F 78% 29.93 in 10.0 mi NNW 5.8 mph - N/A Rain Light Rain
4:34 PM 71.6 °F 64.4 °F 78% 29.92 in 10.0 mi North 9.2 mph - N/A Rain Light Rain
4:53 PM 73.4 °F 62.6 °F 69% 29.92 in 10.0 mi North 8.1 mph - N/A   Mostly Cloudy
5:14 PM 73.4 °F 62.6 °F 69% 29.92 in 10.0 mi North 9.2 mph - N/A   Overcast
5:34 PM 73.4 °F 62.6 °F 69% 29.92 in 10.0 mi NNE 11.5 mph 19.6 mph N/A   Overcast
5:53 PM 71.6 °F 60.8 °F 69% 29.92 in 10.0 mi North 12.7 mph 17.3 mph N/A   Scattered Clouds
6:14 PM 71.6 °F 60.8 °F 69% 29.92 in 10.0 mi North 11.5 mph - N/A   Mostly Cloudy
6:34 PM 69.8 °F 60.8 °F 73% 29.92 in 10.0 mi North 10.4 mph - N/A   Overcast
6:54 PM 69.8 °F 60.8 °F 73% 29.93 in 10.0 mi North 8.1 mph - N/A   Overcast
7:12 PM 69.8 °F 60.8 °F 73% 29.93 in 10.0 mi North 8.1 mph - N/A   Overcast
7:33 PM 69.8 °F 60.8 °F 73% 29.94 in 10.0 mi North 9.2 mph - N/A   Overcast
7:54 PM 69.8 °F 60.8 °F 73% 29.95 in 10.0 mi North 8.1 mph - N/A   Overcast
8:14 PM 69.8 °F 60.8 °F 73% 29.95 in 10.0 mi North 4.6 mph - N/A   Overcast
8:34 PM 69.8 °F 60.8 °F 73% 29.95 in 10.0 mi North 6.9 mph - N/A   Overcast
8:54 PM 69.8 °F 60.8 °F 73% 29.95 in 10.0 mi North 10.4 mph 16.1 mph N/A   Overcast
9:14 PM 69.8 °F 60.8 °F 73% 29.95 in 10.0 mi NNE 8.1 mph - N/A   Overcast
9:34 PM 69.8 °F 60.8 °F 73% 29.95 in 10.0 mi NNE 10.4 mph 16.1 mph N/A   Overcast
9:54 PM 69.8 °F 60.8 °F 73% 29.96 in 10.0 mi NNE 8.1 mph - N/A   Overcast
10:14 PM 69.8 °F 60.8 °F 73% 29.97 in 10.0 mi North 9.2 mph - N/A   Overcast
10:34 PM 68.0 °F 60.8 °F 78% 29.98 in 10.0 mi North 9.2 mph - N/A   Overcast
10:54 PM 68.0 °F 60.8 °F 78% 29.98 in 10.0 mi North 8.1 mph - N/A   Overcast
11:14 PM 66.2 °F 60.8 °F 83% 29.99 in 10.0 mi North 5.8 mph - N/A   Overcast
11:34 PM 66.2 °F 60.8 °F 83% 29.99 in 10.0 mi North 5.8 mph - N/A   Overcast
11:54 PM 66.2 °F 59.0 °F 78% 29.99 in 10.0 mi North 3.5 mph - N/A   Mostly Cloudy